{"data":{"norad_id":81359,"epoch":"2026-09-16T00:13:26.456736Z","epoch_age_seconds":402511,"freshness":"STALE","line1":"1 81359U          26259.00933399  .00000496  00000+0  53056-3 0  9996","line2":"2 81359  66.7965 108.1094 0110564 138.8610 222.0865 13.79238785643713","mean_motion":13.79238785,"eccentricity":0.0110564,"inclination_deg":66.7965,"raan_deg":108.1094,"arg_perigee_deg":138.861,"mean_anomaly_deg":222.0865,"bstar":0.00053056,"rev_number":64371,"period_min":104.40541664437,"perigee_km":885.3816849117,"apogee_km":1047.7941177094,"semimajor_km":7344.7249013105,"source":"CELESTRAK","updated_at":"2026-09-20T09:00:32.386439Z"}}